TimeMST,TemperatureF,Dew PointF,Humidity,Sea Level PressureIn,VisibilityMPH,Wind Direction,Wind SpeedMPH,Gust SpeedMPH,PrecipitationIn,Events,Conditions,WindDirDegrees,DateUTC
1:55 AM,16.0,12.9,88,30.15,10.0,NNW,6.9,-,N/A,,Clear,340,2013-01-20 08:55:00
2:55 AM,15.1,12.0,88,30.14,10.0,North,9.2,-,N/A,,Clear,10,2013-01-20 09:55:00
3:55 AM,23.0,12.0,63,30.10,10.0,NNW,5.8,-,N/A,,Clear,340,2013-01-20 10:55:00
4:55 AM,21.9,12.0,66,30.15,10.0,WNW,10.4,-,N/A,,Clear,300,2013-01-20 11:55:00
6:55 AM,23.0,12.0,63,30.25,10.0,NW,6.9,-,N/A,,Clear,320,2013-01-20 13:55:00
7:55 AM,28.9,15.1,56,30.26,10.0,North,15.0,-,N/A,,Clear,360,2013-01-20 14:55:00
8:55 AM,36.0,15.1,43,30.27,10.0,NNW,11.5,-,N/A,,Clear,340,2013-01-20 15:55:00
9:55 AM,41.0,12.0,31,30.28,10.0,North,26.5,32.2,N/A,,Clear,350,2013-01-20 16:55:00
10:55 AM,42.1,10.9,28,30.27,10.0,NNE,26.5,36.8,N/A,,Clear,20,2013-01-20 17:55:00
11:55 AM,39.9,12.9,33,30.26,10.0,North,19.6,-,N/A,,Clear,360,2013-01-20 18:55:00
12:55 PM,42.1,12.0,29,30.25,10.0,North,19.6,26.5,N/A,,Clear,10,2013-01-20 19:55:00
2:55 PM,42.1,12.0,29,30.25,10.0,NE,12.7,-,N/A,,Clear,40,2013-01-20 21:55:00
3:55 PM,41.0,14.0,33,30.23,10.0,NE,9.2,-,N/A,,Clear,40,2013-01-20 22:55:00
4:55 PM,33.1,18.0,54,30.27,10.0,ENE,9.2,-,N/A,,Clear,70,2013-01-20 23:55:00
5:55 PM,25.0,18.0,75,30.32,10.0,ENE,3.5,-,N/A,,Clear,70,2013-01-21 00:55:00
6:55 PM,24.1,18.0,77,30.35,10.0,Variable,3.5,-,N/A,,Clear,0,2013-01-21 01:55:00
7:55 PM,21.0,18.0,88,30.34,10.0,Calm,Calm,-,N/A,,Clear,0,2013-01-21 02:55:00
8:55 PM,19.0,16.0,88,30.31,10.0,Calm,Calm,-,N/A,,Clear,0,2013-01-21 03:55:00
9:55 PM,15.1,12.0,88,30.32,10.0,Calm,Calm,-,N/A,,Clear,0,2013-01-21 04:55:00
10:55 PM,12.9,10.9,92,30.32,10.0,Calm,Calm,-,N/A,,Clear,0,2013-01-21 05:55:00
11:55 PM,10.9,10.0,96,30.33,10.0,SW,3.5,-,N/A,,Clear,220,2013-01-21 06:55:00